Date String (YYYY-MM-DD hh:mm:ss) UTC,Instrument flags,absolute air pressure of the measurement (hPa),sample flow rate (lpm),inlet stack bypass flow (lpm),air temperature of the measurement (°C),ambient temperature measured by the external sensor (°C),aerosol sample conditioner tube jacket temperature (°C),OPC LED temperature (°C),internal box temperature (°C),relative humidity of the measurement (%),span deviation,mass concentration of particles derived from Lorenz-Mie calculation of OPC scattering (μg/m³),mass concentration of particles derived from Lorenz-Mie calculation of OPC scattering (μg/m³),mass concentration of particles derived from Lorenz-Mie calculation of OPC scattering (μg/m³)
DateTimeUTC,F1_M11,P_M11,Q1_M11,Q2_M11,T1_M11,T2_M11,T3_M11,T4_M11,T5_M11,U1_M11,ZSPAN_M11,X0_M11,X2_M11,X1_M11
2023-11-27 11:00:00,SystemResetWarning,0832.7,5.00,000.00,018.8,017.9,000.0,027.2,020.0,12.3,0000.0,0005.71,0004.20,0004.07
2023-11-27 11:01:00,SystemResetWarning,0832.7,4.98,000.00,018.8,017.9,000.0,027.2,020.0,12.3,0000.0,0005.77,0004.23,0004.10
2023-11-27 11:02:00,SystemResetWarning,0832.7,5.00,000.00,018.8,017.9,000.0,027.2,020.0,12.3,0000.0,0005.83,0004.26,0004.12
2023-11-27 11:03:00,SystemResetWarning,0832.7,5.00,000.00,018.8,017.8,000.0,027.2,020.0,12.3,0000.0,0005.80,0004.25,0004.12
2023-11-27 11:04:00,SystemResetWarning,0832.7,5.00,000.00,018.8,017.8,000.0,027.2,020.0,12.3,0000.0,0005.92,0004.27,0004.13
2023-11-27 11:05:00,SystemResetWarning,0832.7,5.00,000.00,018.8,017.8,000.0,027.2,020.0,12.3,0000.0,0005.98,0004.28,0004.14
2023-11-27 11:06:00,SystemResetWarning,0832.7,5.01,000.00,018.9,018.2,000.0,027.2,020.5,12.2,0000.0,0006.02,0004.29,0004.15
2023-11-27 11:07:00,SystemResetWarning,0832.7,5.01,000.00,019.0,019.0,000.0,027.2,020.9,12.1,0000.0,0006.15,0004.32,0004.16
2023-11-27 11:08:00,SystemResetWarning,0832.8,4.99,000.00,019.1,019.2,000.0,027.2,020.8,12.0,0000.0,0006.15,0004.33,0004.17
2023-11-27 11:09:00,SystemResetWarning,0832.9,5.00,000.00,019.1,019.1,000.0,027.2,020.6,12.0,0000.0,0006.15,0004.33,0004.18
2023-11-27 11:10:00,SystemResetWarning,0832.7,5.02,000.00,019.1,019.0,000.0,027.3,020.5,12.0,0000.0,0006.25,0004.36,0004.19
2023-11-27 11:11:00,SystemResetWarning,0832.7,5.00,000.00,019.1,018.8,000.0,027.3,020.4,12.0,0000.0,0006.34,0004.38,0004.20
2023-11-27 11:12:00,SystemResetWarning,0832.7,4.98,000.00,019.1,018.7,000.0,027.3,020.3,12.1,0000.0,0006.36,0004.38,0004.19
2023-11-27 11:13:00,SystemResetWarning,0832.7,5.00,000.00,019.0,018.6,000.0,027.3,020.2,12.1,0000.0,0006.34,0004.37,0004.18
2023-11-27 11:14:00,SystemResetWarning,0832.7,5.01,000.00,019.0,018.5,000.0,027.3,020.1,12.1,0000.0,0006.40,0004.38,0004.19
2023-11-27 11:15:00,SystemResetWarning,0832.7,5.00,000.00,019.0,018.4,000.0,027.3,020.0,12.1,0000.0,0006.36,0004.39,0004.19
2023-11-27 11:16:00,SystemResetWarning,0832.7,4.98,000.00,018.9,018.3,000.0,027.2,020.0,12.2,0000.0,0006.29,0004.39,0004.19
2023-11-27 11:17:00,SystemResetWarning,0832.7,5.01,000.00,018.9,018.2,000.0,027.2,020.0,12.2,0000.0,0006.20,0004.37,0004.19
2023-11-27 11:18:00,SystemResetWarning,0832.7,5.01,000.00,018.8,018.1,000.0,027.2,020.0,12.3,0000.0,0006.22,0004.36,0004.19
2023-11-27 11:19:00,SystemResetWarning,0832.8,4.99,000.00,018.8,018.1,000.0,027.2,020.0,12.3,0000.0,0006.54,0004.38,0004.19
2023-11-27 11:20:00,SystemResetWarning,0832.7,4.99,000.00,018.8,018.0,000.0,027.2,020.0,12.3,0000.0,0006.68,0004.38,0004.17
2023-11-27 11:21:00,SystemResetWarning,0832.8,5.01,000.00,018.8,017.9,000.0,027.2,020.0,12.3,0000.0,0006.69,0004.39,0004.18
2023-11-27 11:22:00,SystemResetWarning,0832.8,5.00,000.00,018.8,017.9,000.0,027.2,020.0,12.3,0000.0,0006.66,0004.37,0004.16
2023-11-27 11:23:00,SystemResetWarning,0833.2,5.01,000.00,018.8,017.8,000.0,027.2,020.0,12.3,0000.0,0006.67,0004.37,0004.17
2023-11-27 11:24:00,SystemResetWarning,0833.1,5.01,000.00,018.8,017.8,000.0,027.2,020.0,12.3,0000.0,0006.74,0004.39,0004.18
2023-11-27 11:25:00,SystemResetWarning,0832.9,5.00,000.00,018.8,017.8,000.0,027.2,020.0,12.3,0000.0,0006.84,0004.41,0004.18
2023-11-27 11:26:00,SystemResetWarning,0833.0,5.00,000.00,018.8,017.8,000.0,027.2,020.0,12.3,0000.0,0006.81,0004.40,0004.18
2023-11-27 11:27:00,SystemResetWarning,0832.9,5.00,000.00,018.8,017.8,000.0,027.3,020.0,12.3,0000.0,0006.82,0004.40,0004.18
2023-11-27 11:28:00,SystemResetWarning,0833.0,5.00,000.00,018.8,017.8,000.0,027.2,020.0,12.3,0000.0,0007.65,0004.41,0004.17
2023-11-27 11:29:00,SystemResetWarning,0833.1,5.01,000.00,018.8,017.9,000.0,027.2,020.2,12.2,0000.0,0007.98,0004.41,0004.16
2023-11-27 11:30:00,SystemResetWarning,0833.1,5.01,000.00,018.9,018.5,000.0,027.2,020.7,12.2,0000.0,0007.91,0004.38,0004.17
2023-11-27 11:31:00,SystemResetWarning,0833.1,4.99,000.00,019.0,019.1,000.0,027.2,020.9,12.1,0000.0,0007.86,0004.39,0004.18
2023-11-27 11:32:00,SystemResetWarning,0833.2,4.99,000.00,019.1,019.1,000.0,027.2,020.7,11.8,0000.0,0007.84,0004.37,0004.16
2023-11-27 11:33:00,SystemResetWarning,0833.1,5.00,000.00,019.1,019.0,000.0,027.3,020.5,11.7,0000.0,0007.83,0004.37,0004.16
2023-11-27 11:34:00,SystemResetWarning,0833.1,5.00,000.00,019.1,018.8,000.0,027.3,020.4,11.8,0000.0,0007.86,0004.39,0004.16
2023-11-27 11:35:00,SystemResetWarning,0833.1,5.00,000.00,019.1,018.7,000.0,027.3,020.3,11.9,0000.0,0007.88,0004.39,0004.15
2023-11-27 11:36:00,SystemResetWarning,0833.1,4.99,000.00,019.0,018.6,000.0,027.3,020.2,11.9,0000.0,0007.89,0004.38,0004.15
2023-11-27 11:37:00,SystemResetWarning,0833.2,5.00,000.00,019.0,018.5,000.0,027.3,020.2,11.9,0000.0,0007.99,0004.37,0004.14
2023-11-27 11:38:00,SystemResetWarning,0833.2,5.01,000.00,019.0,018.4,000.0,027.3,020.1,11.9,0000.0,0007.96,0004.35,0004.14
2023-11-27 11:39:00,SystemResetWarning,0833.2,5.01,000.00,019.0,018.3,000.0,027.3,020.1,12.0,0000.0,0007.57,0004.39,0004.15
2023-11-27 11:40:00,SystemResetWarning,0833.2,5.00,000.00,018.9,018.3,000.0,027.2,020.0,12.1,0000.0,0007.00,0004.39,0004.16
2023-11-27 11:41:00,SystemResetWarning,0833.2,4.99,000.00,018.9,018.2,000.0,027.2,020.0,12.1,0000.0,0006.96,0004.39,0004.15
2023-11-27 11:42:00,SystemResetWarning,0833.2,4.99,000.00,018.9,018.1,000.0,027.3,020.0,12.1,0000.0,0007.04,0004.37,0004.14
2023-11-27 11:43:00,SystemResetWarning,0833.2,5.01,000.00,018.9,018.1,000.0,027.2,020.0,12.1,0000.0,0007.18,0004.38,0004.15
2023-11-27 11:44:00,SystemResetWarning,0833.2,5.01,000.00,018.9,018.0,000.0,027.3,020.0,12.2,0000.0,0007.18,0004.39,0004.16
2023-11-27 11:45:00,SystemResetWarning,0833.2,5.01,000.00,018.8,018.0,000.0,027.3,020.0,12.2,0000.0,0007.10,0004.37,0004.15
2023-11-27 11:46:00,SystemResetWarning,0833.2,5.01,000.00,018.8,017.9,000.0,027.3,020.0,12.2,0000.0,0006.99,0004.35,0004.15
2023-11-27 11:47:00,SystemResetWarning,0833.2,5.00,000.00,018.8,017.9,000.0,027.3,020.0,12.2,0000.0,0006.80,0004.32,0004.14
2023-11-27 11:48:00,SystemResetWarning,0833.2,4.99,000.00,018.8,017.9,000.0,027.3,020.0,12.2,0000.0,0006.59,0004.32,0004.14
2023-11-27 11:49:00,SystemResetWarning,0833.2,5.00,000.00,018.8,017.8,000.0,027.3,020.0,12.2,0000.0,0006.94,0004.35,0004.15
2023-11-27 11:50:00,SystemResetWarning,0833.2,5.01,000.00,018.8,017.8,000.0,027.3,020.0,12.2,0000.0,0006.97,0004.34,0004.14
2023-11-27 11:51:00,SystemResetWarning,0833.3,5.01,000.00,018.8,017.8,000.0,027.3,020.1,12.2,0000.0,0006.98,0004.33,0004.14
2023-11-27 11:52:00,SystemResetWarning,0833.3,5.00,000.00,018.9,018.2,000.0,027.2,020.5,12.2,0000.0,0006.68,0004.32,0004.13
2023-11-27 11:53:00,SystemResetWarning,0833.4,5.00,000.00,019.0,019.0,000.0,027.3,020.9,12.1,0000.0,0006.55,0004.33,0004.13
2023-11-27 11:54:00,SystemResetWarning,0833.4,5.00,000.00,019.1,019.2,000.0,027.3,020.8,12.0,0000.0,0006.38,0004.31,0004.13
2023-11-27 11:55:00,SystemResetWarning,0833.4,5.00,000.00,019.1,019.1,000.0,027.3,020.6,12.0,0000.0,0006.39,0004.30,0004.11
2023-11-27 11:56:00,SystemResetWarning,0833.4,4.99,000.00,019.1,019.0,000.0,027.3,020.5,12.0,0000.0,0006.38,0004.29,0004.10
2023-11-27 11:57:00,SystemResetWarning,0833.4,5.00,000.00,019.1,018.8,000.0,027.3,020.4,12.0,0000.0,0006.37,0004.28,0004.10
2023-11-27 11:58:00,SystemResetWarning,0833.4,5.01,000.00,019.1,018.7,000.0,027.3,020.2,12.1,0000.0,0006.43,0004.29,0004.10
2023-11-27 11:59:00,SystemResetWarning,0833.4,5.01,000.00,019.0,018.5,000.0,027.3,020.1,12.1,0000.0,0006.33,0004.27,0004.08
